Mecheria, Algeria

5:02 PM CET on August 25, 2019 (GMT +0100)
Mecheria

Weather History for DAAY - June, 2019

Change the Weather History Date:

Saturday, June 1, 2019

  Actual Average (WUND) Record (WUND)
Temperature  
Mean Temperature 73 °F -  
Max Temperature 88 °F - - (-1)
Min Temperature 58 °F - - (-1)
Cooling Degree Days 8    
Growing Degree Days 23 (Base 50)    
Moisture  
Dew Point 44 °F    
Average Humidity 33    
Maximum Humidity 64    
Minimum Humidity 9    
Precipitation  
Precipitation 0.00 in - - ()
Sea Level Pressure  
Sea Level Pressure 30.20 in    
Wind  
Wind Speed 8 mph ()    
Max Wind Speed 16 mph    
Max Gust Speed -    
Visibility 6.1 miles    
Events      
Averages and records for this station are not official NWS values.
T = Trace of Precipitation, MM = Missing Value Source: Averaged Metar Reports

Daily Weather History Graph

Daily Weather History Graph

Search for Another Location

Airport or City:

Astronomy

Jun. 01, 2019 Rise Set
Actual Time 5:52 AM CET 8:05 PM CET
Civil Twilight 5:23 AM CET 8:34 PM CET
Nautical Twilight 4:48 AM CET 9:09 PM CET
Astronomical Twilight 4:11 AM CET 9:46 PM CET
Moon 4:39 AM CET (6/1) 6:10 PM CET (6/1)
Length of Visible Light 15h 10m
Length of Day
14h 13m
Waning Crescent, 5% of the Moon is Illuminated
Jun 1
Waning Crescent
Jun 3
New
Jun 10
First Quarter
Jun 17
Full
Jun 25
Last Quarter

Hourly Weather History & Observations

Time (CET) Temp. Dew Point Humidity Pressure Visibility Wind Dir Wind Speed Gust Speed Precip Events Conditions
12:00 AM 68.0 °F 37.4 °F 33% 30.24 in - North 9.2 mph - N/A   Clear
1:00 AM 64.4 °F 35.6 °F 34% 30.24 in - North 9.2 mph - N/A   Clear
2:00 AM 64.4 °F 35.6 °F 34% 30.24 in - North 9.2 mph - N/A   Clear
3:00 AM 62.6 °F 37.4 °F 39% 30.24 in - North 6.9 mph - N/A   Clear
4:00 AM 60.8 °F 37.4 °F 42% 30.21 in - Calm Calm - N/A   Clear
5:00 AM 59.0 °F 37.4 °F 45% 30.21 in - Calm Calm - N/A   Clear
6:00 AM 59.0 °F 39.2 °F 48% 30.21 in - Calm Calm - N/A   Clear
7:00 AM 60 °F 42 °F 39%  in 6 mi South 4.6 mph - -  
8:00 AM 68.0 °F 55.4 °F 64% 30.21 in - SSW 6.9 mph - N/A   Clear
9:00 AM 71.6 °F 48.2 °F 43% 30.21 in - SSW 11.5 mph - N/A   Clear
10:00 AM 76 °F 50 °F 30%  in 6 mi SSW 11.5 mph - -  
10:00 AM 75.2 °F 50.0 °F 41% 30.21 in - SSW 11.5 mph - N/A   Clear
11:00 AM 78.8 °F 50.0 °F 36% 30.21 in - SSW 9.2 mph - N/A   Clear
12:00 PM 80.6 °F 51.8 °F 37% 30.21 in - SSW 9.2 mph - N/A   Clear
1:00 PM 82 °F 49 °F 22%  in 6 mi SSW 13.8 mph - -  
1:00 PM 82.4 °F 50.0 °F 32% 30.18 in - SSW 13.8 mph - N/A   Clear
2:00 PM 82.4 °F 48.2 °F 30% 30.18 in - SSW 11.5 mph - N/A   Clear
3:00 PM 86.0 °F 48.2 °F 27% 30.15 in 6.2 mi SSW 13.8 mph - N/A   Partly Cloudy
4:00 PM 87 °F 41 °F 11%  in 6 mi SSW 9.2 mph - -   Scattered Clouds
4:00 PM 86.0 °F 41.0 °F 20% 30.15 in 6.2 mi SSW 9.2 mph - N/A   Partly Cloudy
5:00 PM 87.8 °F 39.2 °F 18% 30.15 in 6.2 mi SSW 11.5 mph - N/A   Partly Cloudy
6:00 PM 86.0 °F 35.6 °F 17% 30.12 in 6.2 mi SSW 16.1 mph - N/A   Partly Cloudy
7:00 PM 84 °F 34 °F 9%  in 6 mi SSW 11.5 mph - -   Scattered Clouds
7:00 PM 84.2 °F 33.8 °F 16% 30.15 in 6.2 mi SSW 11.5 mph - N/A   Partly Cloudy
8:00 PM 82.4 °F 35.6 °F 19% 30.18 in 6.2 mi Calm Calm - N/A   Partly Cloudy
9:00 PM 77.0 °F 53.6 °F 44% 30.18 in 6.2 mi SW 13.8 mph - N/A   Partly Cloudy
10:00 PM 75.2 °F 55.4 °F 50% 30.21 in 6.2 mi WSW 11.5 mph - N/A   Partly Cloudy
11:00 PM 71.6 °F 53.6 °F 53% 30.24 in 6.2 mi SSW 9.2 mph - N/A   Partly Cloudy